User: anonymous
Location: Caltech
(34.1382°N, 118.1253°W)
Time: 18:04:27
(UTC-07:00)
Language:

SL-08 R/B - Orbit

View from above orbital plane
View from above orbital plane
View from above satellite
View from above satellite

Ground track
Ground track

The orbit data is extracted from the following two-line orbital elements,

1 27561U 02054C   14206.41096042  .00000169  00000-0  49333-4 0  2424
2 27561 098.1117 345.4427 0046474 209.4393 214.6369 14.54920913618435
Epoch (UTC): 25 July 2014 09:51:46
Eccentricity: 0.0046474
inclination: 98.1117°
perigee height: 676 km
apogee height: 742 km
right ascension of ascending node: 345.4427°
argument of perigee: 209.4393°
revolutions per day: 14.54920913
mean anomaly at epoch: 214.6369°
orbit number at epoch: 61843

The dashed part of the orbit path shows where the satellite is in the earth's shadow,  

DLR